Find Starlink 11127

NORAD ID: 60119 Int'l Des: 2024-118 Owner: SPXS Country: US Constellation: starlink operational
LEOCIRCULAR

当前视图

正在加载3D地球...

About Starlink 11127

Starlink 11127 (NORAD 60119) is a starlink constellation satellite (v2 mini d2c) launched Jun 24, 2024 by SPXS of US. It operates in LEO, CIRCULAR orbit with a mass of 960.00 kg.

关于 Starlink 11127

正在加载描述...

即将过境

Passes for default location (London). Set your location on the main map for personalized predictions.

高度历史

Loading altitude history...

两行轨道根数

1 60119U 24118G 26174.95374410 .00000211 00000-0 66021-5 0 9990
2 60119 53.1598 57.3921 0001151 87.8454 272.2696 15.69710010114685
Epoch: Jun 23, 2026 • Age: 14 hours

当前状态

高度 362.3 km
速度 7.70 km/s
星下点 38.24°N, 15.06°W
发射日期 Jun 24, 2024
运行时间 1.9 years
类型 internet

技术详情

分类 Payload
质量 960.00 kg
干质量 910.00 kg
总质量 960.00 kg
长度 0.30 m
直径 4.10 m
跨度 29.00 m
形状 Box + pan
制造商 SPXS
平台类型 Starlink V2MD
阶段状态 In Orbit
所有者/国家 SPXS/US

Most Searched